Airfield :
LOGIN :

Register | Disclaimer

   EN    FR    IT 

 










Legend :    VFR   Marginal VFR   IFR   Intensive IFR   Very Intensive IFR
Visi :
Ceiling :
>= 8 km
>= 3000ft
5 to 8 km
1000 to 3000 ft
1500m to 5 km
500 to 1000 ft
800 to 1500m
200 to 500 ft
< 800m
< 200 ft
Symbols :   Thunderstorms  Fog  Heavy snow  Heavy precipitations  Wind > 20 kt
SIGMETs :     Misc.  Thunderstorms  Icing  Turbulence  Mountain Waves  Volcanic Ashes







- Airport Elevation : 266 ft
- IATA code : NCL
- Download approach charts


EGNT - Newcastle

CURRENT METAR :
  • 270250Z 27009KT CAVOK 04/03 Q1017

EXPIRED METARs :
  • 270220Z 28008KT CAVOK 04/02 Q1017
  • 270150Z 27009KT CAVOK 05/02 Q1017
  • 270120Z 27008KT CAVOK 04/01 Q1017
  • 270050Z 27008KT CAVOK 04/01 Q1018
  • 270020Z 26008KT CAVOK 03/00 Q1018

TAF TAF EGNT
Valid from the 27 at 00:00 until the 28 at 00:00 UTC


262301Z 2700/2724 26007KT 9999 SCT030
PROB30
TEMPO 2702/2708 8000 -RA BKN014
PROB40
TEMPO 2709/2718 32015G25KT 6000 SHRA
ATIS : +44 191 214 3400
No reported NOTAMs for that airfield.



MET'MAP, your aeronautical weather chart ! - Copyright ORBIFLY December 2007 - Disclaimer

ORBIFLY MET'MAP TEAM :

Programming & Development : Alexandra Zaïnal
Concept & Development : Baudouin d'Aumeries
Co-Development & Prog : Marc-Olivier Méhu
Technical & hardware support : Manuel Goepfert

Contact : metmap@orbifly.com




SOURCES & CREDITS :

   NOAA